Location: Caracas
(10.5000°N, 66.9170°W)
Time: 22:23:46
(UTC-04:00)

OTV 5 (USA 277) - Visible Passes

Search period start: 16 July 2018 00:00
Search period end: 26 July 2018 00:00
Orbit: 312 x 321 km, 54.5° (Epoch: 05 July)

Date Brightness Start Highest point End Pass type
(mag) Time Alt. Az. Time Alt. Az. Time Alt. Az.
20 Jul ? 05:28:51 10° SSE 05:30:25 14° ESE 05:32:00 10° E visible
21 Jul ? 05:42:05 10° SSW 05:44:46 76° ESE 05:47:26 10° NE visible
23 Jul ? 04:40:07 25° E 04:40:07 25° E 04:41:51 10° ENE visible
24 Jul ? 04:54:42 29° N 04:54:42 29° N 04:56:22 10° NNE visible
